| time (UTC) | temp F | wind direction | speed MPH | gust MPH | rain 1hr in | rain 24hr in | rain mn in | humidity % | barometer mb |
| 20260509135502 | 70 | 307 | 0.0 | 3.0 | 0.00 | 0.02 | 0.00 | 89 | 1015.4 |
| 20260509135006 | 70 | 261 | 1.0 | 3.0 | 0.00 | 0.02 | 0.00 | 90 | 1015.3 |
| 20260509134503 | 70 | 355 | 2.0 | 5.0 | 0.00 | 0.02 | 0.00 | 91 | 1015.2 |
| 20260509133507 | 69 | 351 | 3.0 | 4.0 | 0.00 | 0.02 | 0.00 | 92 | 1015.2 |
| 20260509133007 | 69 | 359 | 2.0 | 3.0 | 0.00 | 0.02 | 0.00 | 92 | 1015.0 |
| 20260509132003 | 68 | 356 | 2.0 | 3.0 | 0.00 | 0.02 | 0.00 | 93 | 1015.0 |
| 20260509131512 | 68 | 360 | 1.0 | 3.0 | 0.00 | 0.02 | 0.00 | 93 | 1015.0 |
| 20260509131006 | 68 | 327 | 2.0 | 3.0 | 0.00 | 0.02 | 0.00 | 93 | 1015.1 |
| 20260509130504 | 68 | 274 | 1.0 | 3.0 | 0.00 | 0.02 | 0.00 | 93 | 1015.0 |
| 20260509125507 | 68 | 330 | 1.0 | 3.0 | 0.00 | 0.02 | 0.00 | 93 | 1014.8 |
| 20260509124505 | 68 | 356 | 0.0 | 2.0 | 0.00 | 0.02 | 0.00 | 93 | 1014.5 |
| 20260509124004 | 67 | 37 | 2.0 | 2.0 | 0.00 | 0.02 | 0.00 | 93 | 1014.3 |
| 20260509123503 | 67 | 131 | 0.0 | 2.0 | 0.00 | 0.02 | 0.00 | 93 | 1014.3 |
| 20260509123004 | 67 | 158 | 0.0 | 2.0 | 0.00 | 0.02 | 0.00 | 94 | 1014.2 |
| 20260509122504 | 67 | 297 | 0.0 | 2.0 | 0.00 | 0.02 | 0.00 | 93 | 1014.3 |
| 20260509122011 | 67 | 296 | 1.0 | 2.0 | 0.00 | 0.02 | 0.00 | 94 | 1014.4 |
| 20260509121512 | 67 | 345 | 1.0 | 2.0 | 0.00 | 0.02 | 0.00 | 93 | 1014.5 |
| 20260509121005 | 67 | 340 | 1.0 | 2.0 | 0.00 | 0.02 | 0.00 | 94 | 1014.5 |
| 20260509120507 | 67 | 359 | 1.0 | 2.0 | 0.00 | 0.02 | 0.00 | 94 | 1014.6 |
| 20260509120010 | 66 | 347 | 2.0 | 2.0 | 0.00 | 0.02 | 0.00 | 94 | 1014.5 |
| 20260509115506 | 66 | 359 | 0.0 | 2.0 | 0.00 | 0.02 | 0.00 | 93 | 1014.5 |
| 20260509115009 | 66 | 327 | 1.0 | 3.0 | 0.00 | 0.02 | 0.00 | 93 | 1014.6 |
| 20260509113503 | 66 | 289 | 1.0 | 2.0 | 0.00 | 0.02 | 0.00 | 94 | 1014.6 |
| 20260509113012 | 66 | 353 | 1.0 | 2.0 | 0.00 | 0.02 | 0.00 | 94 | 1014.4 |
| 20260509112503 | 66 | 1 | 2.0 | 3.0 | 0.00 | 0.02 | 0.00 | 94 | 1014.3 |
| 20260509112005 | 66 | 1 | 1.0 | 4.0 | 0.00 | 0.02 | 0.00 | 94 | 1014.3 |
| 20260509111507 | 66 | 359 | 2.0 | 4.0 | 0.00 | 0.02 | 0.00 | 93 | 1014.2 |
| 20260509111003 | 66 | 1 | 2.0 | 4.0 | 0.00 | 0.02 | 0.00 | 93 | 1014.2 |
| 20260509110502 | 66 | 359 | 3.0 | 4.0 | 0.00 | 0.02 | 0.00 | 93 | 1014.1 |
| 20260509110012 | 66 | 359 | 1.0 | 5.0 | 0.00 | 0.02 | 0.00 | 93 | 1014.1 |
| 20260509105505 | 65 | 1 | 3.0 | 5.0 | 0.00 | 0.02 | 0.00 | 93 | 1014.0 |
| 20260509105006 | 66 | 359 | 4.0 | 5.0 | 0.00 | 0.02 | 0.00 | 93 | 1013.9 |
| 20260509104533 | 65 | 188 | 0.0 | 2.0 | 0.00 | 0.02 | 0.00 | 93 | 1013.4 |
| 20260509104007 | 66 | 171 | 1.0 | 3.0 | 0.00 | 0.02 | 0.00 | 93 | 1013.4 |
| 20260509103507 | 66 | 315 | 3.0 | 3.0 | 0.00 | 0.02 | 0.00 | 93 | 1013.5 |
| 20260509103021 | 66 | 8 | 0.0 | 3.0 | 0.00 | 0.02 | 0.00 | 93 | 1013.2 |
| 20260509102507 | 66 | 77 | 0.0 | 4.0 | 0.00 | 0.02 | 0.00 | 93 | 1012.9 |
| 20260509102005 | 66 | 356 | 4.0 | 4.0 | 0.00 | 0.02 | 0.00 | 93 | 1013.2 |
| 20260509101509 | 66 | 115 | 0.0 | 7.0 | 0.00 | 0.02 | 0.00 | 93 | 1013.1 |
| 20260509101003 | 66 | 81 | 1.0 | 9.0 | 0.00 | 0.02 | 0.00 | 93 | 1013.1 |
| 20260509093502 | 66 | 165 | 2.0 | 5.0 | 0.00 | 0.02 | 0.00 | 93 | 1012.6 |
| 20260509093004 | 66 | 203 | 3.0 | 8.0 | 0.00 | 0.02 | 0.00 | 93 | 1012.7 |
| 20260509092505 | 66 | 196 | 4.0 | 8.0 | 0.00 | 0.02 | 0.00 | 93 | 1012.5 |
| 20260509092003 | 66 | 204 | 6.0 | 8.0 | 0.00 | 0.02 | 0.00 | 93 | 1012.4 |
| 20260509091506 | 66 | 181 | 5.0 | 7.0 | 0.00 | 0.02 | 0.00 | 93 | 1012.2 |
| 20260509091004 | 66 | 194 | 4.0 | 11.0 | 0.00 | 0.02 | 0.00 | 93 | 1012.2 |
| 20260509090506 | 66 | 208 | 4.0 | 14.0 | 0.00 | 0.02 | 0.00 | 93 | 1012.1 |
| 20260509090009 | 66 | 196 | 7.0 | 14.0 | 0.00 | 0.02 | 0.00 | 93 | 1011.9 |
| 20260509085505 | 66 | 188 | 7.0 | 11.0 | 0.00 | 0.02 | 0.00 | 93 | 1012.0 |
| 20260509085002 | 66 | 179 | 6.0 | 7.0 | 0.00 | 0.02 | 0.00 | 94 | 1012.5 |
| 20260509084503 | 66 | 207 | 3.0 | 6.0 | 0.00 | 0.02 | 0.00 | 94 | 1012.8 |
| 20260509084004 | 66 | 189 | 3.0 | 8.0 | 0.00 | 0.02 | 0.00 | 94 | 1012.8 |
| 20260509083502 | 66 | 186 | 4.0 | 12.0 | 0.00 | 0.02 | 0.00 | 94 | 1012.5 |
| 20260509083003 | 66 | 200 | 6.0 | 12.0 | 0.00 | 0.02 | 0.00 | 94 | 1012.3 |
| 20260509082503 | 66 | 179 | 7.0 | 12.0 | 0.00 | 0.02 | 0.00 | 94 | 1012.0 |
| 20260509082005 | 66 | 182 | 8.0 | 11.0 | 0.00 | 0.02 | 0.00 | 94 | 1012.2 |
| 20260509081504 | 66 | 153 | 6.0 | 8.0 | 0.00 | 0.02 | 0.00 | 94 | 1012.8 |
| 20260509081005 | 66 | 160 | 3.0 | 4.0 | 0.00 | 0.02 | 0.00 | 94 | 1013.5 |
| 20260509080504 | 66 | 311 | 1.0 | 4.0 | 0.00 | 0.02 | 0.00 | 94 | 1013.7 |
| 20260509080010 | 66 | 354 | 3.0 | 4.0 | 0.00 | 0.02 | 0.00 | 94 | 1013.8 |
| 20260509075504 | 66 | 351 | 3.0 | 4.0 | 0.00 | 0.02 | 0.00 | 94 | 1013.8 |
| 20260509075004 | 66 | 340 | 1.0 | 2.0 | 0.00 | 0.02 | 0.00 | 94 | 1013.7 |
| 20260509074512 | 66 | 309 | 2.0 | 3.0 | 0.00 | 0.02 | 0.00 | 94 | 1013.8 |
| 20260509074002 | 66 | 334 | 2.0 | 3.0 | 0.00 | 0.02 | 0.00 | 94 | 1013.8 |
| 20260509071503 | 66 | 259 | 0.0 | 2.0 | 0.00 | 0.02 | 0.00 | 93 | 1013.7 |
| 20260509071004 | 66 | 197 | 0.0 | 2.0 | 0.00 | 0.02 | 0.00 | 93 | 1013.7 |
| 20260509070504 | 66 | 197 | 0.0 | 1.0 | 0.00 | 0.02 | 0.00 | 93 | 1013.8 |
| 20260509070009 | 66 | 178 | 1.0 | 2.0 | 0.00 | 0.02 | 0.00 | 94 | 1013.9 |
| 20260509065504 | 66 | 178 | 1.0 | 2.0 | 0.00 | 0.02 | 0.00 | 93 | 1013.9 |
| 20260509065004 | 66 | 176 | 1.0 | 2.0 | 0.00 | 0.02 | 0.00 | 93 | 1014.1 |
| 20260509064508 | 66 | 215 | 1.0 | 4.0 | 0.00 | 0.02 | 0.00 | 93 | 1014.2 |
| 20260509064008 | 67 | 187 | 1.0 | 4.0 | 0.00 | 0.02 | 0.00 | 93 | 1014.2 |
| 20260509063505 | 67 | 148 | 2.0 | 4.0 | 0.00 | 0.02 | 0.00 | 93 | 1014.3 |
| 20260509063019 | 67 | 174 | 2.0 | 3.0 | 0.00 | 0.02 | 0.00 | 93 | 1014.5 |
| 20260509062502 | 67 | 161 | 2.0 | 3.0 | 0.00 | 0.02 | 0.00 | 93 | 1014.6 |
| 20260509062006 | 67 | 184 | 2.0 | 3.0 | 0.00 | 0.02 | 0.00 | 94 | 1014.6 |
| 20260509055005 | 67 | 191 | 2.0 | 7.0 | 0.00 | 0.02 | 0.00 | 93 | 1014.5 |
| 20260509054506 | 67 | 167 | 3.0 | 7.0 | 0.00 | 0.02 | 0.00 | 93 | 1014.5 |
| 20260509054005 | 67 | 170 | 3.0 | 7.0 | 0.00 | 0.02 | 0.00 | 93 | 1014.7 |
| 20260509053504 | 67 | 151 | 4.0 | 5.0 | 0.00 | 0.02 | 0.00 | 93 | 1014.7 |
| 20260509053013 | 67 | 163 | 3.0 | 7.0 | 0.00 | 0.02 | 0.00 | 93 | 1014.6 |
| 20260509052503 | 67 | 153 | 3.0 | 7.0 | 0.00 | 0.02 | 0.00 | 93 | 1014.8 |
| 20260509052007 | 67 | 175 | 4.0 | 6.0 | 0.00 | 0.02 | 0.00 | 93 | 1015.2 |
| 20260509051517 | 67 | 173 | 3.0 | 6.0 | 0.00 | 0.02 | 0.00 | 93 | 1015.2 |
| 20260509044005 | 67 | 146 | 3.0 | 5.0 | 0.01 | 0.02 | 0.00 | 93 | 1015.8 |
| 20260509041007 | 67 | 174 | 0.0 | 2.0 | 0.01 | 0.02 | 0.00 | 93 | 1016.4 |
| 20260509040506 | 67 | 174 | 0.0 | 4.0 | 0.01 | 0.02 | 0.00 | 93 | 1016.7 |
| 20260509040005 | 67 | 150 | 2.0 | 4.0 | 0.01 | 0.02 | 0.00 | 93 | 1016.8 |
| 20260509035502 | 67 | 165 | 2.0 | 3.0 | 0.01 | 0.02 | 0.02 | 93 | 1016.9 |
| 20260509034504 | 67 | 160 | 0.0 | 2.0 | 0.01 | 0.02 | 0.02 | 93 | 1017.0 |
| 20260509034002 | 67 | 160 | 0.0 | 2.0 | 0.00 | 0.01 | 0.01 | 93 | 1016.9 |
| 20260509031010 | 68 | 138 | 0.0 | 2.0 | 0.00 | 0.01 | 0.01 | 93 | 1016.7 |
| 20260509024005 | 68 | 50 | 1.0 | 2.0 | 0.01 | 0.01 | 0.01 | 92 | 1017.2 |
| 20260509021007 | 67 | 70 | 1.0 | 3.0 | 0.01 | 0.01 | 0.01 | 92 | 1017.5 |
| 20260509014512 | 68 | 319 | 2.0 | 8.0 | 0.00 | 0.00 | 0.00 | 91 | 1017.9 |
| 20260509014002 | 68 | 323 | 6.0 | 11.0 | 0.00 | 0.00 | 0.00 | 90 | 1017.3 |
| 20260509011002 | 71 | 30 | 3.0 | 9.0 | 0.00 | 0.00 | 0.00 | 84 | 1016.4 |
| 20260509004507 | 71 | 66 | 4.0 | 6.0 | 0.00 | 0.00 | 0.00 | 83 | 1015.6 |
| 20260509002007 | 71 | 101 | 1.0 | 6.0 | 0.00 | 0.00 | 0.00 | 82 | 1015.2 |
| 20260509001517 | 71 | 79 | 3.0 | 6.0 | 0.00 | 0.00 | 0.00 | 82 | 1015.1 |
| 20260509001006 | 71 | 162 | 4.0 | 6.0 | 0.00 | 0.00 | 0.00 | 82 | 1015.0 |
| 20260508234504 | 72 | 53 | 2.0 | 6.0 | 0.00 | 0.00 | 0.00 | 80 | 1014.7 |
| 20260508234003 | 72 | 58 | 3.0 | 9.0 | 0.00 | 0.00 | 0.00 | 80 | 1014.5 |
| 20260508233503 | 72 | 46 | 2.0 | 9.0 | 0.00 | 0.00 | 0.00 | 80 | 1014.6 |
| 20260508233006 | 73 | 89 | 3.0 | 6.0 | 0.00 | 0.00 | 0.00 | 80 | 1014.7 |
| 20260508232504 | 73 | 93 | 3.0 | 10.0 | 0.00 | 0.00 | 0.00 | 80 | 1014.6 |
| 20260508232005 | 73 | 103 | 5.0 | 10.0 | 0.00 | 0.00 | 0.00 | 79 | 1014.6 |
| 20260508231510 | 73 | 68 | 4.0 | 13.0 | 0.00 | 0.00 | 0.00 | 79 | 1014.7 |
| 20260508231004 | 73 | 103 | 7.0 | 13.0 | 0.00 | 0.00 | 0.00 | 78 | 1014.8 |
| 20260508230504 | 74 | 97 | 6.0 | 12.0 | 0.00 | 0.00 | 0.00 | 78 | 1014.9 |
| 20260508230012 | 74 | 72 | 7.0 | 13.0 | 0.00 | 0.00 | 0.00 | 77 | 1015.0 |
| 20260508225511 | 74 | 68 | 8.0 | 13.0 | 0.00 | 0.00 | 0.00 | 77 | 1014.9 |
| 20260508225004 | 75 | 109 | 6.0 | 13.0 | 0.00 | 0.00 | 0.00 | 76 | 1014.9 |
| 20260508224504 | 75 | 117 | 3.0 | 12.0 | 0.00 | 0.00 | 0.00 | 76 | 1014.6 |
| 20260508224003 | 75 | 43 | 5.0 | 10.0 | 0.00 | 0.00 | 0.00 | 76 | 1014.6 |
| 20260508223504 | 75 | 199 | 4.0 | 11.0 | 0.00 | 0.00 | 0.00 | 76 | 1014.6 |
| 20260508223004 | 75 | 69 | 2.0 | 12.0 | 0.00 | 0.00 | 0.00 | 76 | 1014.6 |
| 20260508222504 | 76 | 102 | 7.0 | 12.0 | 0.00 | 0.00 | 0.00 | 75 | 1014.6 |
| 20260508222004 | 76 | 91 | 5.0 | 12.0 | 0.00 | 0.00 | 0.00 | 75 | 1014.6 |
| 20260508221510 | 76 | 103 | 8.0 | 13.0 | 0.00 | 0.00 | 0.00 | 73 | 1014.5 |
| 20260508221003 | 77 | 49 | 7.0 | 13.0 | 0.00 | 0.00 | 0.00 | 72 | 1014.3 |
| 20260508220507 | 77 | 108 | 3.0 | 11.0 | 0.00 | 0.00 | 0.00 | 72 | 1014.3 |
| 20260508220015 | 77 | 104 | 6.0 | 14.0 | 0.00 | 0.00 | 0.00 | 72 | 1014.2 |
| 20260508215516 | 77 | 58 | 5.0 | 14.0 | 0.00 | 0.00 | 0.00 | 72 | 1014.3 |
| 20260508215013 | 78 | 81 | 5.0 | 13.0 | 0.00 | 0.00 | 0.00 | 71 | 1014.2 |
| 20260508214526 | 78 | 69 | 7.0 | 12.0 | 0.00 | 0.00 | 0.00 | 71 | 1014.0 |
| 20260508214004 | 78 | 96 | 8.0 | 11.0 | 0.00 | 0.00 | 0.00 | 70 | 1014.1 |
| 20260508213503 | 79 | 120 | 4.0 | 9.0 | 0.00 | 0.00 | 0.00 | 70 | 1014.0 |
| 20260508213004 | 79 | 89 | 5.0 | 9.0 | 0.00 | 0.00 | 0.00 | 70 | 1014.1 |
| 20260508212504 | 79 | 120 | 5.0 | 10.0 | 0.00 | 0.00 | 0.00 | 69 | 1014.1 |
| 20260508212004 | 79 | 56 | 4.0 | 12.0 | 0.00 | 0.00 | 0.00 | 69 | 1014.1 |
| 20260508211536 | 79 | 25 | 7.0 | 12.0 | 0.00 | 0.00 | 0.00 | 68 | 1014.2 |
| 20260508211004 | 80 | 126 | 4.0 | 11.0 | 0.00 | 0.00 | 0.00 | 67 | 1014.2 |
| 20260508210506 | 80 | 89 | 6.0 | 11.0 | 0.00 | 0.00 | 0.00 | 66 | 1014.2 |
| 20260508210009 | 81 | 84 | 7.0 | 11.0 | 0.00 | 0.00 | 0.00 | 66 | 1014.1 |
| 20260508205510 | 80 | 104 | 3.0 | 9.0 | 0.00 | 0.00 | 0.00 | 67 | 1014.0 |
| 20260508205006 | 80 | 99 | 1.0 | 7.0 | 0.00 | 0.00 | 0.00 | 68 | 1014.0 |
| 20260508204517 | 80 | 104 | 4.0 | 8.0 | 0.00 | 0.00 | 0.00 | 66 | 1013.9 |
| 20260508204005 | 80 | 108 | 4.0 | 10.0 | 0.00 | 0.00 | 0.00 | 66 | 1013.9 |
| 20260508203508 | 80 | 85 | 2.0 | 12.0 | 0.00 | 0.00 | 0.00 | 65 | 1014.0 |
| 20260508203022 | 81 | 68 | 6.0 | 12.0 | 0.00 | 0.00 | 0.00 | 65 | 1014.0 |
| 20260508201506 | 80 | 42 | 5.0 | 10.0 | 0.00 | 0.00 | 0.00 | 65 | 1014.2 |
| 20260508201005 | 80 | 72 | 4.0 | 11.0 | 0.00 | 0.00 | 0.00 | 64 | 1014.4 |
| 20260508200505 | 81 | 53 | 8.0 | 10.0 | 0.00 | 0.00 | 0.00 | 62 | 1014.5 |
| 20260508200011 | 81 | 188 | 2.0 | 6.0 | 0.00 | 0.00 | 0.00 | 62 | 1014.6 |
| 20260508195507 | 81 | 99 | 3.0 | 7.0 | 0.00 | 0.00 | 0.00 | 63 | 1014.7 |
| 20260508195005 | 81 | 84 | 5.0 | 10.0 | 0.00 | 0.00 | 0.00 | 64 | 1014.8 |
| 20260508194528 | 80 | 35 | 7.0 | 10.0 | 0.00 | 0.00 | 0.00 | 64 | 1014.9 |
| 20260508194007 | 80 | 12 | 5.0 | 9.0 | 0.00 | 0.00 | 0.00 | 64 | 1015.1 |
| 20260508193504 | 80 | 23 | 5.0 | 9.0 | 0.00 | 0.00 | 0.00 | 63 | 1015.1 |
| 20260508193021 | 81 | 96 | 5.0 | 9.0 | 0.00 | 0.00 | 0.00 | 63 | 1015.2 |
| 20260508192513 | 81 | 59 | 6.0 | 9.0 | 0.00 | 0.00 | 0.00 | 64 | 1015.1 |
| 20260508192006 | 80 | 33 | 4.0 | 8.0 | 0.00 | 0.00 | 0.00 | 64 | 1015.2 |
| 20260508191002 | 80 | 84 | 5.0 | 8.0 | 0.00 | 0.00 | 0.00 | 65 | 1015.2 |
| 20260508190504 | 80 | 15 | 2.0 | 8.0 | 0.00 | 0.00 | 0.00 | 65 | 1015.4 |
| 20260508190013 | 80 | 34 | 4.0 | 10.0 | 0.00 | 0.00 | 0.00 | 65 | 1015.4 |
| 20260508185505 | 80 | 78 | 6.0 | 11.0 | 0.00 | 0.00 | 0.00 | 63 | 1015.4 |
| 20260508185007 | 81 | 40 | 6.0 | 11.0 | 0.00 | 0.00 | 0.00 | 62 | 1015.7 |
| 20260508184513 | 82 | 33 | 7.0 | 10.0 | 0.00 | 0.00 | 0.00 | 61 | 1015.7 |
| 20260508184006 | 82 | 72 | 3.0 | 9.0 | 0.00 | 0.00 | 0.00 | 61 | 1015.7 |
| 20260508183512 | 81 | 62 | 2.0 | 3.0 | 0.00 | 0.00 | 0.00 | 62 | 1015.8 |
| 20260508183024 | 81 | 158 | 1.0 | 7.0 | 0.00 | 0.00 | 0.00 | 62 | 1015.8 |
| 20260508182510 | 80 | 141 | 3.0 | 7.0 | 0.00 | 0.00 | 0.00 | 62 | 1015.8 |
| 20260508182009 | 80 | 157 | 2.0 | 9.0 | 0.00 | 0.00 | 0.00 | 63 | 1015.8 |
| 20260508181527 | 80 | 68 | 4.0 | 11.0 | 0.00 | 0.00 | 0.00 | 63 | 1015.8 |
| 20260508181012 | 80 | 87 | 7.0 | 11.0 | 0.00 | 0.00 | 0.00 | 62 | 1015.9 |
| 20260508180506 | 80 | 1 | 2.0 | 8.0 | 0.00 | 0.00 | 0.00 | 63 | 1016.0 |
| 20260508175010 | 79 | 13 | 4.0 | 10.0 | 0.00 | 0.00 | 0.00 | 64 | 1016.1 |
| 20260508174514 | 80 | 43 | 3.0 | 8.0 | 0.00 | 0.00 | 0.00 | 63 | 1016.1 |
| 20260508174005 | 80 | 145 | 2.0 | 7.0 | 0.00 | 0.00 | 0.00 | 63 | 1016.0 |
| 20260508173505 | 80 | 89 | 3.0 | 7.0 | 0.00 | 0.00 | 0.00 | 62 | 1015.9 |
| 20260508172508 | 80 | 15 | 5.0 | 8.0 | 0.00 | 0.00 | 0.00 | 63 | 1016.1 |
| 20260508172008 | 80 | 37 | 1.0 | 4.0 | 0.00 | 0.00 | 0.00 | 62 | 1016.3 |
| 20260508171528 | 80 | 160 | 2.0 | 6.0 | 0.00 | 0.00 | 0.00 | 63 | 1016.3 |
| 20260508171009 | 80 | 75 | 3.0 | 6.0 | 0.00 | 0.00 | 0.00 | 63 | 1016.2 |
| 20260508170509 | 80 | 86 | 3.0 | 6.0 | 0.00 | 0.00 | 0.00 | 63 | 1016.2 |
| 20260508170022 | 79 | 100 | 2.0 | 5.0 | 0.00 | 0.00 | 0.00 | 64 | 1016.2 |
| 20260508165507 | 79 | 110 | 2.0 | 8.0 | 0.00 | 0.00 | 0.00 | 62 | 1016.3 |
| 20260508164006 | 81 | 125 | 2.0 | 8.0 | 0.00 | 0.00 | 0.00 | 62 | 1016.4 |
| 20260508163502 | 80 | 192 | 3.0 | 6.0 | 0.00 | 0.00 | 0.00 | 61 | 1016.5 |
| 20260508162502 | 79 | 356 | 1.0 | 5.0 | 0.00 | 0.00 | 0.00 | 62 | 1016.6 |
| 20260508162006 | 78 | 143 | 2.0 | 6.0 | 0.00 | 0.00 | 0.00 | 62 | 1016.6 |
| 20260508161509 | 78 | 186 | 3.0 | 7.0 | 0.00 | 0.00 | 0.00 | 63 | 1016.7 |
| 20260508161003 | 78 | 94 | 5.0 | 7.0 | 0.00 | 0.00 | 0.00 | 63 | 1016.9 |
| 20260508160503 | 78 | 63 | 3.0 | 5.0 | 0.00 | 0.00 | 0.00 | 63 | 1016.9 |
| 20260508160003 | 77 | 1 | 2.0 | 6.0 | 0.00 | 0.00 | 0.00 | 64 | 1017.0 |
| 20260508155504 | 76 | 65 | 3.0 | 8.0 | 0.00 | 0.00 | 0.00 | 64 | 1017.1 |
| 20260508154531 | 76 | 360 | 4.0 | 8.0 | 0.00 | 0.00 | 0.00 | 64 | 1017.4 |
| 20260508154004 | 76 | 60 | 4.0 | 9.0 | 0.00 | 0.00 | 0.00 | 65 | 1017.3 |
| 20260508153504 | 76 | 39 | 5.0 | 9.0 | 0.00 | 0.00 | 0.00 | 64 | 1017.3 |
| 20260508153012 | 75 | 48 | 4.0 | 8.0 | 0.00 | 0.00 | 0.00 | 65 | 1017.3 |
| 20260508152509 | 75 | 30 | 4.0 | 6.0 | 0.00 | 0.00 | 0.00 | 66 | 1017.4 |
| 20260508152002 | 75 | 47 | 2.0 | 7.0 | 0.00 | 0.00 | 0.00 | 66 | 1017.3 |
| 20260508151508 | 74 | 39 | 4.0 | 6.0 | 0.00 | 0.00 | 0.00 | 67 | 1017.2 |
| 20260508151003 | 74 | 359 | 4.0 | 7.0 | 0.00 | 0.00 | 0.00 | 66 | 1017.4 |
| 20260508150504 | 74 | 41 | 3.0 | 7.0 | 0.00 | 0.00 | 0.00 | 68 | 1017.4 |
| 20260508150028 | 73 | 23 | 3.0 | 6.0 | 0.00 | 0.00 | 0.00 | 68 | 1017.3 |
| 20260508145504 | 73 | 6 | 3.0 | 6.0 | 0.00 | 0.00 | 0.00 | 67 | 1017.2 |
| 20260508145003 | 73 | 54 | 5.0 | 6.0 | 0.00 | 0.00 | 0.00 | 67 | 1017.3 |
| 20260508144509 | 73 | 27 | 2.0 | 7.0 | 0.00 | 0.00 | 0.00 | 67 | 1017.3 |
| 20260508144006 | 73 | 49 | 4.0 | 7.0 | 0.00 | 0.00 | 0.00 | 66 | 1017.2 |
| 20260508143010 | 73 | 355 | 3.0 | 6.0 | 0.00 | 0.00 | 0.00 | 68 | 1017.3 |
| 20260508142507 | 73 | 37 | 3.0 | 6.0 | 0.00 | 0.00 | 0.00 | 69 | 1017.1 |
| 20260508142009 | 72 | 45 | 2.0 | 6.0 | 0.00 | 0.00 | 0.00 | 70 | 1017.2 |
| 20260508141523 | 72 | 65 | 3.0 | 6.0 | 0.00 | 0.00 | 0.00 | 71 | 1017.1 |
| 20260508141003 | 72 | 60 | 3.0 | 6.0 | 0.00 | 0.00 | 0.00 | 71 | 1017.1 |
| 20260508140503 | 72 | 58 | 3.0 | 8.0 | 0.00 | 0.00 | 0.00 | 71 | 1017.2 |
| 20260508140005 | 72 | 46 | 5.0 | 8.0 | 0.00 | 0.00 | 0.00 | 71 | 1017.2 |